Location: Riverside
(39.1734°N, 77.8561°W)
Time: 12:26:55
(UTC+00:00)

OTV 5 (USA 277) - Pass Details

Date: 18 October 2019
Orbit: 310 x 324 km, 54.5° (Epoch: 17 October)

Event Time Altitude Azimuth Distance (km) Brightness Sun altitude
Exits shadow 10:39:33 - 321° (NW) 1,426 ? -9.3°
Reaches altitude 10° 10:40:00 10° 323° (NW) 1,238 ? -9.3°
Maximum altitude 10:42:42 50° 40° (NE) 416 ? -8.7°
Drops below altitude 10° 10:45:21 10° 118° (ESE) 1,225 ? -8.2°
Sets 10:47:20 0° 124° (SE) 2,049 ? -7.8°
